Time,TemperatureF,DewpointF,PressureIn,WindDirection,WindDirectionDegrees,WindSpeedMPH,WindSpeedGustMPH,Humidity,HourlyPrecipIn,Conditions,Clouds,dailyrainin,SoftwareType,DateUTC
2013-05-05 00:02:00,48.0,41.0,-100.00,SE,138,1.0,3.0,77,0.00,,,0.00,,2013-05-05 04:02:00,
2013-05-05 00:12:00,48.0,41.0,-100.00,SE,138,1.0,3.0,77,0.00,,,0.00,,2013-05-05 04:12:00,
2013-05-05 00:23:00,48.0,41.0,-100.00,SE,138,1.0,3.0,77,0.00,,,0.00,,2013-05-05 04:23:00,
2013-05-05 00:33:00,48.0,40.0,-100.00,SE,140,2.0,4.0,76,0.00,,,0.00,,2013-05-05 04:33:00,
2013-05-05 00:43:00,48.0,40.0,-100.00,SE,140,2.0,4.0,76,0.00,,,0.00,,2013-05-05 04:43:00,
2013-05-05 00:53:00,48.0,40.0,-100.00,SE,138,3.0,5.0,73,0.00,,,0.00,,2013-05-05 04:53:00,
2013-05-05 01:02:00,46.0,39.0,-100.00,SE,143,4.0,6.0,77,0.00,,,0.00,,2013-05-05 05:02:00,
2013-05-05 01:12:00,46.0,39.0,-100.00,SE,143,4.0,6.0,77,0.00,,,0.00,,2013-05-05 05:12:00,
2013-05-05 01:22:00,46.0,39.0,-100.00,SE,134,5.0,6.0,78,0.00,,,0.00,,2013-05-05 05:22:00,
2013-05-05 01:32:00,45.0,39.0,-100.00,SE,138,5.0,6.0,79,0.00,,,0.00,,2013-05-05 05:32:00,
2013-05-05 01:42:00,45.0,39.0,-100.00,SE,138,5.0,6.0,79,0.00,,,0.00,,2013-05-05 05:42:00,
2013-05-05 01:52:00,44.0,39.0,-100.00,SE,136,4.0,6.0,81,0.00,,,0.00,,2013-05-05 05:52:00,
2013-05-05 02:01:00,44.0,38.0,-100.00,SE,143,6.0,8.0,80,0.00,,,0.00,,2013-05-05 06:01:00,
2013-05-05 02:12:00,44.0,38.0,-100.00,SE,143,6.0,8.0,80,0.00,,,0.00,,2013-05-05 06:12:00,
2013-05-05 02:22:00,45.0,38.0,-100.00,SE,134,6.0,10.0,76,0.00,,,0.00,,2013-05-05 06:22:00,
2013-05-05 02:32:00,44.0,38.0,-100.00,SE,137,6.0,10.0,79,0.00,,,0.00,,2013-05-05 06:32:00,
2013-05-05 02:42:00,44.0,38.0,-100.00,SE,137,6.0,10.0,79,0.00,,,0.00,,2013-05-05 06:42:00,
2013-05-05 02:52:00,44.0,38.0,-100.00,SE,134,4.0,7.0,81,0.00,,,0.00,,2013-05-05 06:52:00,
2013-05-05 03:01:00,43.0,38.0,-100.00,SE,137,4.0,7.0,83,0.00,,,0.00,,2013-05-05 07:01:00,
2013-05-05 03:11:00,43.0,38.0,-100.00,SE,137,4.0,7.0,83,0.00,,,0.00,,2013-05-05 07:11:00,
2013-05-05 03:22:00,43.0,38.0,-100.00,SE,143,5.0,7.0,83,0.00,,,0.00,,2013-05-05 07:22:00,
2013-05-05 03:32:00,43.0,38.0,-100.00,SE,140,4.0,7.0,84,0.00,,,0.00,,2013-05-05 07:32:00,
2013-05-05 03:42:00,43.0,38.0,-100.00,SE,140,4.0,7.0,84,0.00,,,0.00,,2013-05-05 07:42:00,
2013-05-05 03:52:00,43.0,38.0,-100.00,SE,133,3.0,6.0,84,0.00,,,0.00,,2013-05-05 07:52:00,
2013-05-05 04:02:00,42.0,38.0,-100.00,SE,141,3.0,5.0,85,0.00,,,0.00,,2013-05-05 08:02:00,
2013-05-05 04:11:00,42.0,38.0,-100.00,SE,141,3.0,5.0,85,0.00,,,0.00,,2013-05-05 08:11:00,
2013-05-05 04:22:00,42.0,38.0,-100.00,SE,130,2.0,4.0,87,0.00,,,0.00,,2013-05-05 08:22:00,
2013-05-05 04:32:00,41.0,38.0,-100.00,SE,131,3.0,6.0,87,0.00,,,0.00,,2013-05-05 08:32:00,
2013-05-05 04:42:00,41.0,38.0,-100.00,SE,131,3.0,6.0,87,0.00,,,0.00,,2013-05-05 08:42:00,
2013-05-05 04:53:00,41.0,37.0,-100.00,SE,136,5.0,7.0,86,0.00,,,0.00,,2013-05-05 08:53:00,
2013-05-05 05:01:00,41.0,37.0,-100.00,SE,134,4.0,8.0,88,0.00,,,0.00,,2013-05-05 09:01:00,
2013-05-05 05:11:00,41.0,37.0,-100.00,SE,134,4.0,8.0,88,0.00,,,0.00,,2013-05-05 09:11:00,
2013-05-05 05:22:00,40.0,37.0,-100.00,SE,141,6.0,8.0,90,0.00,,,0.00,,2013-05-05 09:22:00,
2013-05-05 05:33:00,40.0,37.0,-100.00,SE,143,4.0,7.0,90,0.00,,,0.00,,2013-05-05 09:33:00,
2013-05-05 05:42:00,40.0,37.0,-100.00,SE,143,4.0,7.0,90,0.00,,,0.00,,2013-05-05 09:42:00,
2013-05-05 05:52:00,40.0,38.0,-100.00,SE,141,5.0,9.0,90,0.00,,,0.00,,2013-05-05 09:52:00,
2013-05-05 06:03:00,41.0,38.0,-100.00,SE,141,6.0,9.0,90,0.00,,,0.00,,2013-05-05 10:03:00,
2013-05-05 06:12:00,41.0,38.0,-100.00,SE,141,6.0,9.0,90,0.00,,,0.00,,2013-05-05 10:12:00,
2013-05-05 06:22:00,42.0,39.0,-100.00,SSE,161,7.0,12.0,90,0.00,,,0.00,,2013-05-05 10:22:00,
2013-05-05 06:32:00,42.0,39.0,-100.00,SSE,152,6.0,10.0,90,0.00,,,0.00,,2013-05-05 10:32:00,
2013-05-05 06:42:00,42.0,39.0,-100.00,SSE,152,6.0,10.0,90,0.00,,,0.00,,2013-05-05 10:42:00,
2013-05-05 06:53:00,42.0,39.0,-100.00,SE,145,7.0,11.0,90,0.00,,,0.00,,2013-05-05 10:53:00,
2013-05-05 07:01:00,42.0,39.0,-100.00,SSE,155,6.0,10.0,90,0.00,,,0.00,,2013-05-05 11:01:00,
2013-05-05 07:12:00,42.0,39.0,-100.00,SSE,155,6.0,10.0,90,0.00,,,0.00,,2013-05-05 11:12:00,
2013-05-05 07:22:00,42.0,39.0,-100.00,SE,145,5.0,8.0,89,0.00,,,0.00,,2013-05-05 11:22:00,
2013-05-05 07:32:00,42.0,39.0,-100.00,SSE,162,6.0,13.0,89,0.00,,,0.00,,2013-05-05 11:32:00,
2013-05-05 07:42:00,42.0,39.0,-100.00,SSE,162,6.0,13.0,89,0.00,,,0.00,,2013-05-05 11:42:00,
2013-05-05 07:52:00,43.0,39.0,-100.00,SSE,155,7.0,11.0,88,0.00,,,0.00,,2013-05-05 11:52:00,
2013-05-05 08:02:00,43.0,39.0,-100.00,SSE,158,6.0,12.0,87,0.00,,,0.00,,2013-05-05 12:02:00,
2013-05-05 08:11:00,43.0,39.0,-100.00,SSE,158,6.0,12.0,87,0.00,,,0.00,,2013-05-05 12:11:00,
2013-05-05 08:22:00,43.0,39.0,-100.00,SSE,154,7.0,13.0,85,0.00,,,0.00,,2013-05-05 12:22:00,
2013-05-05 08:32:00,43.0,39.0,-100.00,SSE,155,7.0,13.0,84,0.00,,,0.00,,2013-05-05 12:32:00,
2013-05-05 08:42:00,43.0,39.0,-100.00,SSE,155,7.0,13.0,84,0.00,,,0.00,,2013-05-05 12:42:00,
2013-05-05 08:52:00,44.0,38.0,-100.00,SSE,155,9.0,16.0,81,0.00,,,0.00,,2013-05-05 12:52:00,
2013-05-05 09:01:00,45.0,39.0,-100.00,SSE,154,9.0,15.0,77,0.00,,,0.00,,2013-05-05 13:01:00,
2013-05-05 09:11:00,45.0,39.0,-100.00,SSE,154,9.0,15.0,77,0.00,,,0.00,,2013-05-05 13:11:00,
2013-05-05 09:21:00,44.0,37.0,-100.00,SSE,151,8.0,14.0,78,0.00,,,0.00,,2013-05-05 13:21:00,
2013-05-05 09:32:00,44.0,38.0,-100.00,SSE,150,8.0,13.0,78,0.00,,,0.00,,2013-05-05 13:32:00,
2013-05-05 09:42:00,44.0,38.0,-100.00,SSE,150,8.0,13.0,78,0.00,,,0.00,,2013-05-05 13:42:00,
2013-05-05 09:52:00,45.0,38.0,-100.00,SSE,150,8.0,13.0,76,0.00,,,0.00,,2013-05-05 13:52:00,
2013-05-05 10:02:00,46.0,37.0,-100.00,SSE,151,9.0,16.0,71,0.00,,,0.00,,2013-05-05 14:02:00,
2013-05-05 10:11:00,46.0,37.0,-100.00,SSE,151,9.0,16.0,71,0.00,,,0.00,,2013-05-05 14:11:00,
2013-05-05 10:21:00,46.0,36.0,-100.00,SSE,147,9.0,14.0,69,0.00,,,0.00,,2013-05-05 14:21:00,
2013-05-05 10:32:00,46.0,37.0,-100.00,SSE,147,9.0,15.0,72,0.00,,,0.00,,2013-05-05 14:32:00,
2013-05-05 10:42:00,46.0,37.0,-100.00,SSE,147,9.0,15.0,72,0.00,,,0.00,,2013-05-05 14:42:00,
2013-05-05 10:52:00,46.0,37.0,-100.00,SSE,151,6.0,13.0,71,0.00,,,0.00,,2013-05-05 14:52:00,
2013-05-05 11:02:00,47.0,36.0,-100.00,SSE,150,9.0,15.0,66,0.00,,,0.00,,2013-05-05 15:02:00,
2013-05-05 11:11:00,47.0,36.0,-100.00,SSE,150,9.0,15.0,66,0.00,,,0.00,,2013-05-05 15:11:00,
2013-05-05 11:21:00,49.0,38.0,-100.00,SE,141,5.0,13.0,66,0.00,,,0.00,,2013-05-05 15:21:00,
2013-05-05 11:33:00,49.0,38.0,-100.00,SSE,154,7.0,15.0,65,0.00,,,0.00,,2013-05-05 15:33:00,
2013-05-05 11:43:00,49.0,38.0,-100.00,SSE,154,7.0,15.0,65,0.00,,,0.00,,2013-05-05 15:43:00,
2013-05-05 11:53:00,48.0,38.0,-100.00,SSE,148,8.0,17.0,68,0.00,,,0.00,,2013-05-05 15:53:00,
2013-05-05 12:03:00,49.0,38.0,-100.00,SSE,148,11.0,15.0,67,0.00,,,0.00,,2013-05-05 16:03:00,
2013-05-05 12:12:00,49.0,38.0,-100.00,SSE,148,11.0,15.0,67,0.00,,,0.00,,2013-05-05 16:12:00,
2013-05-05 12:23:00,50.0,38.0,-100.00,SSE,151,6.0,16.0,64,0.00,,,0.00,,2013-05-05 16:23:00,
2013-05-05 12:32:00,51.0,40.0,-100.00,SSE,151,9.0,15.0,65,0.00,,,0.00,,2013-05-05 16:32:00,
2013-05-05 12:42:00,51.0,40.0,-100.00,SSE,151,9.0,15.0,65,0.00,,,0.00,,2013-05-05 16:42:00,
2013-05-05 12:53:00,52.0,39.0,-100.00,SSE,158,6.0,18.0,61,0.00,,,0.00,,2013-05-05 16:53:00,
2013-05-05 13:02:00,52.0,39.0,-100.00,SSE,152,8.0,14.0,60,0.00,,,0.00,,2013-05-05 17:02:00,
2013-05-05 13:12:00,52.0,39.0,-100.00,SSE,152,8.0,14.0,60,0.00,,,0.00,,2013-05-05 17:12:00,
2013-05-05 13:23:00,54.0,38.0,-100.00,SSE,154,8.0,15.0,55,0.00,,,0.00,,2013-05-05 17:23:00,
2013-05-05 13:32:00,54.0,38.0,-100.00,SSE,150,12.0,19.0,53,0.00,,,0.00,,2013-05-05 17:32:00,
2013-05-05 13:42:00,54.0,38.0,-100.00,SSE,150,12.0,19.0,53,0.00,,,0.00,,2013-05-05 17:42:00,
2013-05-05 13:52:00,54.0,39.0,-100.00,SSE,160,11.0,17.0,57,0.00,,,0.00,,2013-05-05 17:52:00,
2013-05-05 14:01:00,54.0,38.0,-100.00,SSE,157,9.0,19.0,53,0.00,,,0.00,,2013-05-05 18:01:00,
2013-05-05 14:12:00,54.0,38.0,-100.00,SSE,157,9.0,19.0,53,0.00,,,0.00,,2013-05-05 18:12:00,
2013-05-05 14:21:00,55.0,39.0,-100.00,SSE,155,11.0,17.0,53,0.00,,,0.00,,2013-05-05 18:21:00,
2013-05-05 14:32:00,57.0,40.0,-100.00,SSE,148,11.0,20.0,54,0.00,,,0.00,,2013-05-05 18:32:00,
2013-05-05 14:42:00,57.0,40.0,-100.00,SSE,148,11.0,20.0,54,0.00,,,0.00,,2013-05-05 18:42:00,
2013-05-05 14:52:00,57.0,40.0,-100.00,SSE,154,10.0,18.0,52,0.00,,,0.00,,2013-05-05 18:52:00,
2013-05-05 15:01:00,57.0,39.0,-100.00,SE,145,11.0,18.0,51,0.00,,,0.00,,2013-05-05 19:01:00,
2013-05-05 15:12:00,57.0,39.0,-100.00,SE,145,11.0,18.0,51,0.00,,,0.00,,2013-05-05 19:12:00,
2013-05-05 15:22:00,58.0,39.0,-100.00,SSE,152,12.0,18.0,49,0.00,,,0.00,,2013-05-05 19:22:00,
2013-05-05 15:32:00,59.0,40.0,-100.00,SE,145,10.0,19.0,49,0.00,,,0.00,,2013-05-05 19:32:00,
2013-05-05 15:42:00,59.0,40.0,-100.00,SE,145,10.0,19.0,49,0.00,,,0.00,,2013-05-05 19:42:00,
2013-05-05 15:52:00,60.0,39.0,-100.00,SSE,151,10.0,21.0,45,0.00,,,0.00,,2013-05-05 19:52:00,
2013-05-05 16:01:00,59.0,38.0,-100.00,SE,143,10.0,16.0,46,0.00,,,0.00,,2013-05-05 20:01:00,
2013-05-05 16:11:00,59.0,38.0,-100.00,SE,143,10.0,16.0,46,0.00,,,0.00,,2013-05-05 20:11:00,
2013-05-05 16:21:00,59.0,39.0,-100.00,SSE,151,11.0,22.0,49,0.00,,,0.00,,2013-05-05 20:21:00,
2013-05-05 16:32:00,60.0,38.0,-100.00,SSE,152,10.0,19.0,44,0.00,,,0.00,,2013-05-05 20:32:00,
2013-05-05 16:42:00,60.0,38.0,-100.00,SSE,152,10.0,19.0,44,0.00,,,0.00,,2013-05-05 20:42:00,
2013-05-05 16:52:00,59.0,39.0,-100.00,SSE,150,9.0,15.0,47,0.00,,,0.00,,2013-05-05 20:52:00,
2013-05-05 17:02:00,61.0,37.0,-100.00,SSE,150,10.0,18.0,41,0.00,,,0.00,,2013-05-05 21:02:00,
2013-05-05 17:11:00,61.0,37.0,-100.00,SSE,150,10.0,18.0,41,0.00,,,0.00,,2013-05-05 21:11:00,
2013-05-05 17:22:00,60.0,38.0,-100.00,SSE,154,12.0,22.0,43,0.00,,,0.00,,2013-05-05 21:22:00,
2013-05-05 17:33:00,61.0,40.0,-100.00,SSE,150,11.0,20.0,46,0.00,,,0.00,,2013-05-05 21:33:00,
2013-05-05 17:42:00,61.0,40.0,-100.00,SSE,150,11.0,20.0,46,0.00,,,0.00,,2013-05-05 21:42:00,
2013-05-05 17:53:00,60.0,38.0,-100.00,SSE,147,12.0,18.0,44,0.00,,,0.00,,2013-05-05 21:53:00,
2013-05-05 18:02:00,60.0,39.0,-100.00,SSE,147,13.0,18.0,45,0.00,,,0.00,,2013-05-05 22:02:00,
2013-05-05 18:12:00,60.0,39.0,-100.00,SSE,147,13.0,18.0,45,0.00,,,0.00,,2013-05-05 22:12:00,
2013-05-05 18:22:00,60.0,39.0,-100.00,SE,144,12.0,18.0,45,0.00,,,0.00,,2013-05-05 22:22:00,
2013-05-05 18:33:00,60.0,39.0,-100.00,SE,144,11.0,16.0,46,0.00,,,0.00,,2013-05-05 22:33:00,
2013-05-05 18:42:00,60.0,39.0,-100.00,SE,144,11.0,16.0,46,0.00,,,0.00,,2013-05-05 22:42:00,
2013-05-05 18:52:00,60.0,39.0,-100.00,SE,141,11.0,15.0,45,0.00,,,0.00,,2013-05-05 22:52:00,
2013-05-05 19:02:00,59.0,39.0,-100.00,SSE,147,9.0,16.0,46,0.00,,,0.00,,2013-05-05 23:02:00,
2013-05-05 19:12:00,59.0,39.0,-100.00,SSE,147,9.0,16.0,46,0.00,,,0.00,,2013-05-05 23:12:00,
2013-05-05 19:22:00,59.0,40.0,-100.00,SSE,148,10.0,15.0,49,0.00,,,0.00,,2013-05-05 23:22:00,
2013-05-05 19:32:00,58.0,40.0,-100.00,SE,143,10.0,13.0,51,0.00,,,0.00,,2013-05-05 23:32:00,
2013-05-05 19:42:00,58.0,40.0,-100.00,SE,143,10.0,13.0,51,0.00,,,0.00,,2013-05-05 23:42:00,
2013-05-05 19:52:00,57.0,41.0,-100.00,SE,143,8.0,13.0,55,0.00,,,0.00,,2013-05-05 23:52:00,
2013-05-05 20:01:00,56.0,41.0,-100.00,SE,143,8.0,13.0,56,0.00,,,0.00,,2013-05-06 00:01:00,
2013-05-05 20:11:00,56.0,41.0,-100.00,SE,143,8.0,13.0,56,0.00,,,0.00,,2013-05-06 00:11:00,
2013-05-05 20:22:00,55.0,41.0,-100.00,SE,143,8.0,12.0,59,0.00,,,0.00,,2013-05-06 00:22:00,
2013-05-05 20:32:00,54.0,41.0,-100.00,SSE,147,8.0,11.0,60,0.00,,,0.00,,2013-05-06 00:32:00,
2013-05-05 20:42:00,54.0,41.0,-100.00,SSE,147,8.0,11.0,60,0.00,,,0.00,,2013-05-06 00:42:00,
2013-05-05 20:52:00,53.0,40.0,-100.00,SE,140,7.0,10.0,63,0.00,,,0.00,,2013-05-06 00:52:00,
2013-05-05 21:01:00,52.0,40.0,-100.00,SSE,147,7.0,9.0,64,0.00,,,0.00,,2013-05-06 01:01:00,
2013-05-05 21:11:00,52.0,40.0,-100.00,SSE,147,7.0,9.0,64,0.00,,,0.00,,2013-05-06 01:11:00,
2013-05-05 21:21:00,52.0,41.0,-100.00,SE,144,8.0,13.0,64,0.00,,,0.00,,2013-05-06 01:21:00,
2013-05-05 21:32:00,51.0,41.0,-100.00,SE,143,8.0,13.0,68,0.00,,,0.00,,2013-05-06 01:32:00,
2013-05-05 21:42:00,51.0,41.0,-100.00,SE,143,8.0,13.0,68,0.00,,,0.00,,2013-05-06 01:42:00,
2013-05-05 21:52:00,51.0,41.0,-100.00,SE,143,8.0,12.0,70,0.00,,,0.00,,2013-05-06 01:52:00,
2013-05-05 22:02:00,50.0,41.0,-100.00,SE,143,7.0,11.0,72,0.00,,,0.00,,2013-05-06 02:02:00,
2013-05-05 22:12:00,50.0,41.0,-100.00,SE,143,7.0,11.0,72,0.00,,,0.00,,2013-05-06 02:12:00,
2013-05-05 22:21:00,49.0,42.0,-100.00,SE,145,7.0,9.0,74,0.00,,,0.00,,2013-05-06 02:21:00,
2013-05-05 22:32:00,49.0,41.0,-100.00,SE,140,7.0,10.0,75,0.00,,,0.00,,2013-05-06 02:32:00,
2013-05-05 22:42:00,49.0,41.0,-100.00,SE,140,7.0,10.0,75,0.00,,,0.00,,2013-05-06 02:42:00,
2013-05-05 22:52:00,49.0,42.0,-100.00,SE,138,7.0,9.0,77,0.00,,,0.00,,2013-05-06 02:52:00,
2013-05-05 23:02:00,47.0,41.0,-100.00,SE,138,8.0,11.0,78,0.00,,,0.00,,2013-05-06 03:02:00,
2013-05-05 23:11:00,47.0,41.0,-100.00,SE,138,8.0,11.0,78,0.00,,,0.00,,2013-05-06 03:11:00,
2013-05-05 23:22:00,48.0,41.0,-100.00,SE,140,8.0,10.0,78,0.00,,,0.00,,2013-05-06 03:22:00,
2013-05-05 23:33:00,47.0,41.0,-100.00,SE,138,8.0,11.0,79,0.00,,,0.00,,2013-05-06 03:33:00,
2013-05-05 23:42:00,47.0,41.0,-100.00,SE,138,8.0,11.0,79,0.00,,,0.00,,2013-05-06 03:42:00,
2013-05-05 23:53:00,48.0,42.0,-100.00,SE,137,8.0,12.0,80,0.00,,,0.00,,2013-05-06 03:53:00,